QPF
0.00 0.00 0.01 0.03 0.06 0.13 0.19 0.16 0.14 0.08 0.06 0.06 0.04 0.03 0.04 0.04 0.05 0.04 0.03 0.02 0.01 0.01 0.01 0.00 0.00 0.00 0.00 0.00 0.00 0.00 0.00 0.00 0.00 0.00 0.01 0.00 0.00 0.00 0.00 0.00 0.01 0.01 0.00 0.00 0.01 0.01 0.00 0.00 0.00
0.00 0.00 0.01 0.04 0.10 0.17 0.15 0.11 0.10 0.06 0.06 0.07 0.06 0.04 0.05 0.06 0.01 0.04 0.03 0.01 0.01 0.01 0.01 0.00 0.00 0.00 0.00 0.00 0.00 0.01 0.01 0.01 0.01 0.01 0.01 0.01 0.01 0.01 0.01 0.00 0.00 0.00 0.00 0.00 0.00 0.01 0.00 0.00 0.00
0.00 0.01 0.02 0.06 0.13 0.19 0.19 0.10 0.05 0.04 0.09 0.12 0.07 0.05 0.07 0.07 0.03 0.10 0.08 0.02 0.02 0.02 0.03 0.02 0.00 0.00 0.00 0.00 0.00 0.00 0.01 0.00 0.01 0.01 0.01 0.01 0.01 0.01 0.00 0.00 0.00 0.01 0.00 0.00 0.00 0.00 0.00 0.00 0.00
0.00 0.01 0.03 0.07 0.12 0.12 0.11 0.09 0.07 0.07 0.10 0.13 0.10 0.12 0.11 0.05 0.02 0.09 0.07 0.02 0.01 0.02 0.03 0.02 0.00 0.00 0.00 0.00 0.00 0.00 0.00 0.00 0.00 0.00 0.00 0.00 0.01 0.01 0.01 0.01 0.01 0.00 0.00 0.00 0.00 0.00 0.00 0.00 0.00
0.00 0.02 0.04 0.07 0.08 0.11 0.11 0.09 0.09 0.10 0.14 0.17 0.15 0.19 0.12 0.06 0.04 0.04 0.03 0.02 0.01 0.01 0.01 0.01 0.00 0.00 0.00 0.00 0.00 0.00 0.01 0.01 0.00 0.00 0.00 0.00 0.00 0.00 0.00 0.01 0.01 0.00 0.00 0.00 0.00 0.00 0.00 0.00 0.00
0.00 0.01 0.02 0.03 0.04 0.06 0.06 0.06 0.06 0.09 0.14 0.18 0.20 0.17 0.15 0.09 0.06 0.04 0.03 0.02 0.01 0.00 0.01 0.01 0.01 0.00 0.00 0.00 0.00 0.00 0.00 0.01 0.00 0.00 0.00 0.00 0.00 0.00 0.01 0.01 0.01 0.01 0.01 0.01 0.00 0.00 0.00 0.00 0.00
0.00 0.00 0.01 0.01 0.02 0.03 0.03 0.03 0.04 0.07 0.18 0.20 0.19 0.23 0.18 0.12 0.08 0.06 0.05 0.04 0.01 0.01 0.01 0.01 0.01 0.01 0.01 0.00 0.00 0.00 0.00 0.01 0.00 0.00 0.00 0.00 0.01 0.01 0.01 0.01 0.01 0.02 0.02 0.02 0.01 0.01 0.00 0.00 0.00
0.00 0.00 0.00 0.00 0.01 0.01 0.02 0.02 0.04 0.09 0.12 0.15 0.20 0.28 0.21 0.13 0.10 0.10 0.15 0.10 0.05 0.03 0.01 0.01 0.01 0.00 0.00 0.01 0.01 0.01 0.01 0.01 0.01 0.01 0.01 0.01 0.01 0.02 0.03 0.02 0.02 0.03 0.04 0.03 0.02 0.01 0.01 0.00 0.00
0.00 0.00 0.00 0.00 0.00 0.00 0.01 0.01 0.02 0.05 0.08 0.11 0.17 0.22 0.20 0.16 0.13 0.20 0.32 0.23 0.14 0.06 0.02 0.02 0.01 0.01 0.01 0.01 0.02 0.03 0.03 0.02 0.02 0.03 0.04 0.03 0.02 0.03 0.04 0.06 0.06 0.07 0.07 0.06 0.04 0.03 0.02 0.01 0.01
0.00 0.00 0.00 0.00 0.00 0.00 0.00 0.01 0.03 0.06 0.10 0.17 0.31 0.35 0.25 0.25 0.20 0.35 0.42 0.33 0.29 0.15 0.07 0.04 0.03 0.04 0.05 0.03 0.03 0.03 0.03 0.03 0.04 0.04 0.04 0.05 0.05 0.06 0.06 0.08 0.13 0.13 0.11 0.08 0.07 0.06 0.05 0.02 0.02
0.00 0.00 0.00 0.00 0.00 0.00 0.00 0.01 0.02 0.06 0.14 0.20 0.28 0.37 0.30 0.33 0.31 0.49 0.53 0.39 0.34 0.25 0.13 0.07 0.05 0.07 0.08 0.07 0.06 0.06 0.08 0.08 0.09 0.09 0.09 0.10 0.12 0.08 0.08 0.08 0.11 0.13 0.13 0.11 0.11 0.10 0.07 0.05 0.03
0.00 0.00 0.00 0.00 0.00 0.00 0.00 0.00 0.02 0.08 0.26 0.18 0.23 0.28 0.26 0.32 0.34 0.46 0.61 0.42 0.25 0.15 0.13 0.15 0.10 0.10 0.12 0.09 0.08 0.07 0.08 0.10 0.09 0.10 0.13 0.11 0.09 0.09 0.09 0.09 0.10 0.10 0.11 0.12 0.11 0.11 0.11 0.09 0.08
0.00 0.00 0.00 0.00 0.00 0.00 0.00 0.01 0.03 0.11 0.18 0.24 0.32 0.26 0.18 0.38 0.31 0.43 0.63 0.33 0.21 0.17 0.14 0.14 0.13 0.11 0.09 0.07 0.06 0.05 0.06 0.07 0.07 0.06 0.09 0.08 0.07 0.08 0.08 0.09 0.09 0.09 0.09 0.09 0.10 0.11 0.12 0.11 0.10
0.00 0.00 0.00 0.00 0.00 0.00 0.01 0.02 0.07 0.16 0.22 0.28 0.25 0.20 0.17 0.25 0.22 0.32 0.39 0.30 0.20 0.16 0.13 0.11 0.11 0.09 0.09 0.07 0.06 0.05 0.05 0.05 0.05 0.06 0.07 0.07 0.07 0.08 0.07 0.08 0.08 0.08 0.08 0.08 0.09 0.10 0.10 0.08 0.08
0.00 0.00 0.00 0.00 0.01 0.02 0.02 0.04 0.10 0.20 0.33 0.35 0.33 0.23 0.15 0.18 0.26 0.25 0.23 0.23 0.19 0.13 0.11 0.11 0.10 0.10 0.09 0.06 0.05 0.04 0.05 0.05 0.04 0.04 0.06 0.05 0.05 0.04 0.04 0.05 0.06 0.06 0.06 0.08 0.08 0.09 0.09 0.09 0.08
0.00 0.00 0.00 0.01 0.02 0.03 0.02 0.08 0.14 0.19 0.37 0.45 0.39 0.30 0.30 0.27 0.32 0.29 0.33 0.21 0.18 0.14 0.09 0.08 0.05 0.06 0.10 0.07 0.05 0.05 0.05 0.04 0.03 0.03 0.03 0.04 0.04 0.04 0.04 0.03 0.03 0.03 0.04 0.04 0.05 0.07 0.09 0.09 0.08
0.00 0.01 0.01 0.02 0.02 0.03 0.05 0.09 0.12 0.13 0.21 0.31 0.43 0.31 0.32 0.33 0.37 0.33 0.28 0.21 0.20 0.16 0.09 0.05 0.04 0.05 0.06 0.06 0.05 0.04 0.03 0.04 0.03 0.03 0.02 0.03 0.03 0.03 0.03 0.02 0.02 0.02 0.03 0.03 0.03 0.04 0.06 0.07 0.07
0.00 0.01 0.02 0.02 0.03 0.08 0.07 0.10 0.13 0.13 0.19 0.28 0.39 0.37 0.23 0.20 0.22 0.23 0.22 0.19 0.16 0.14 0.09 0.04 0.05 0.05 0.06 0.05 0.05 0.05 0.04 0.03 0.02 0.02 0.01 0.01 0.01 0.01 0.02 0.02 0.02 0.01 0.02 0.02 0.02 0.03 0.05 0.05 0.05
0.00 0.01 0.03 0.05 0.05 0.09 0.10 0.15 0.19 0.14 0.14 0.24 0.32 0.28 0.17 0.17 0.16 0.14 0.12 0.10 0.10 0.10 0.09 0.07 0.08 0.06 0.03 0.03 0.03 0.02 0.02 0.03 0.03 0.02 0.01 0.01 0.01 0.01 0.01 0.01 0.01 0.01 0.01 0.01 0.02 0.03 0.05 0.05 0.05
0.00 0.01 0.03 0.04 0.06 0.12 0.15 0.16 0.19 0.19 0.19 0.24 0.29 0.25 0.22 0.18 0.14 0.11 0.07 0.05 0.05 0.05 0.04 0.03 0.03 0.02 0.02 0.02 0.01 0.02 0.02 0.03 0.04 0.03 0.01 0.00 0.00 0.00 0.00 0.00 0.00 0.00 0.00 0.01 0.01 0.02 0.03 0.04 0.05
0.01 0.01 0.02 0.04 0.10 0.16 0.14 0.19 0.16 0.16 0.20 0.23 0.23 0.34 0.28 0.19 0.13 0.08 0.06 0.04 0.02 0.02 0.02 0.02 0.02 0.01 0.01 0.01 0.01 0.01 0.01 0.01 0.02 0.01 0.01 0.00 0.00 0.00 0.00 0.00 0.00 0.00 0.00 0.01 0.01 0.01 0.01 0.02 0.03
0.00 0.01 0.01 0.04 0.06 0.11 0.14 0.22 0.15 0.13 0.18 0.25 0.26 0.25 0.21 0.14 0.11 0.08 0.05 0.03 0.02 0.02 0.02 0.02 0.02 0.01 0.01 0.01 0.01 0.00 0.00 0.00 0.00 0.00 0.01 0.01 0.01 0.01 0.00 0.00 0.00 0.00 0.00 0.00 0.01 0.01 0.01 0.01 0.01
0.00 0.01 0.02 0.05 0.07 0.11 0.12 0.15 0.16 0.11 0.15 0.26 0.29 0.18 0.11 0.07 0.08 0.07 0.05 0.03 0.02 0.02 0.02 0.02 0.01 0.01 0.01 0.01 0.01 0.01 0.00 0.00 0.00 0.00 0.01 0.00 0.00 0.00 0.00 0.01 0.01 0.01 0.00 0.00 0.00 0.00 0.00 0.01 0.01
0.00 0.01 0.03 0.04 0.07 0.11 0.11 0.11 0.09 0.05 0.06 0.15 0.20 0.10 0.07 0.05 0.05 0.04 0.04 0.04 0.03 0.02 0.02 0.01 0.01 0.01 0.01 0.01 0.01 0.01 0.00 0.00 0.00 0.00 0.00 0.00 0.00 0.00 0.00 0.00 0.01 0.01 0.01 0.00 0.00 0.00 0.00 0.00 0.00
0.01 0.02 0.03 0.05 0.11 0.07 0.05 0.08 0.05 0.01 0.01 0.04 0.09 0.11 0.10 0.04 0.05 0.04 0.04 0.04 0.04 0.02 0.01 0.01 0.01 0.01 0.01 0.00 0.00 0.00 0.00 0.00 0.00 0.00 0.00 0.00 0.00 0.00 0.00 0.00 0.01 0.00 0.00 0.00 0.00 0.00 0.00 0.00 0.00
0.01 0.02 0.04 0.07 0.12 0.10 0.08 0.09 0.06 0.02 0.02 0.02 0.07 0.07 0.04 0.04 0.05 0.04 0.06 0.04 0.02 0.01 0.01 0.01 0.00 0.00 0.00 0.00 0.00 0.00 0.00 0.00 0.00 0.00 0.00 0.00 0.00 0.00 0.00 0.00 0.00 0.00 0.00 0.00 0.00 0.00 0.00 0.00 0.00
0.01 0.02 0.03 0.06 0.15 0.25 0.17 0.11 0.04 0.03 0.03 0.02 0.04 0.04 0.02 0.07 0.06 0.03 0.04 0.02 0.01 0.00 0.00 0.00 0.00 0.00 0.00 0.00 0.00 0.00 0.00 0.00 0.00 0.00 0.00 0.00 0.00 0.00 0.00 0.00 0.00 0.00 0.00 0.00 0.00 0.00 0.00 0.01 0.01
0.02 0.02 0.02 0.05 0.12 0.18 0.20 0.13 0.05 0.03 0.02 0.02 0.05 0.05 0.02 0.03 0.03 0.02 0.01 0.01 0.00 0.00 0.00 0.00 0.00 0.00 0.00 0.00 0.00 0.00 0.00 0.00 0.00 0.00 0.00 0.00 0.00 0.00 0.00 0.00 0.00 0.00 0.00 0.00 0.00 0.00 0.00 0.01 0.01
0.02 0.02 0.02 0.03 0.05 0.07 0.12 0.08 0.02 0.01 0.01 0.02 0.06 0.07 0.03 0.02 0.01 0.01 0.00 0.00 0.00 0.00 0.00 0.00 0.00 0.00 0.00 0.00 0.00 0.00 0.00 0.00 0.00 0.00 0.00 0.00 0.00 0.00 0.00 0.00 0.00 0.00 0.00 0.00 0.00 0.00 0.00 0.00 0.01
0.01 0.02 0.02 0.03 0.03 0.05 0.05 0.03 0.01 0.01 0.01 0.01 0.04 0.06 0.03 0.01 0.00 0.00 0.00 0.00 0.00 0.00 0.00 0.00 0.00 0.00 0.00 0.00 0.00 0.00 0.00 0.00 0.00 0.00 0.00 0.00 0.00 0.00 0.00 0.00 0.00 0.00 0.00 0.00 0.00 0.00 0.00 0.00 0.00
MSLP
1012.07 1013.13 1014.36 1015.56 1016.52 1017.06 1017.08 1016.56 1015.60 1014.38 1013.12 1012.04 1011.28 1010.94 1010.98 1011.31 1011.77 1012.22 1012.51 1012.62 1012.54 1012.36 1012.19 1012.11 1012.21 1012.48 1012.89 1013.36 1013.81 1014.17 1014.42 1014.56 1014.65 1014.74 1014.89 1015.12 1015.42 1015.76 1016.08 1016.32 1016.46 1016.50 1016.46 1016.40 1016.35 1016.36 1016.45 1016.60 1016.77
1012.57 1013.84 1015.17 1016.35 1017.18 1017.51 1017.28 1016.52 1015.36 1013.99 1012.65 1011.53 1010.78 1010.43 1010.46 1010.75 1011.18 1011.59 1011.88 1012.02 1012.02 1011.96 1011.93 1012.00 1012.22 1012.59 1013.06 1013.56 1014.01 1014.36 1014.61 1014.76 1014.87 1014.99 1015.16 1015.40 1015.69 1016.00 1016.28 1016.48 1016.59 1016.60 1016.56 1016.51 1016.49 1016.54 1016.65 1016.82 1017.02
1013.11 1014.51 1015.85 1016.93 1017.58 1017.68 1017.22 1016.28 1015.01 1013.60 1012.28 1011.22 1010.52 1010.22 1010.26 1010.53 1010.90 1011.25 1011.51 1011.65 1011.70 1011.72 1011.80 1011.99 1012.31 1012.76 1013.26 1013.77 1014.21 1014.56 1014.80 1014.96 1015.08 1015.22 1015.40 1015.63 1015.90 1016.17 1016.40 1016.56 1016.63 1016.63 1016.60 1016.57 1016.59 1016.68 1016.83 1017.03 1017.24
1013.61 1015.02 1016.28 1017.19 1017.61 1017.50 1016.87 1015.83 1014.54 1013.21 1012.03 1011.12 1010.57 1010.36 1010.43 1010.68 1010.99 1011.27 1011.47 1011.58 1011.64 1011.72 1011.88 1012.14 1012.53 1013.00 1013.51 1014.00 1014.41 1014.73 1014.95 1015.11 1015.24 1015.39 1015.58 1015.80 1016.04 1016.27 1016.45 1016.56 1016.60 1016.60 1016.59 1016.60 1016.66 1016.79 1016.97 1017.19 1017.41
1013.99 1015.30 1016.36 1017.04 1017.23 1016.92 1016.19 1015.15 1013.97 1012.83 1011.88 1011.22 1010.87 1010.80 1010.93 1011.16 1011.42 1011.62 1011.75 1011.82 1011.88 1011.99 1012.18 1012.48 1012.88 1013.35 1013.82 1014.25 1014.60 1014.86 1015.04 1015.19 1015.32 1015.48 1015.68 1015.90 1016.12 1016.31 1016.45 1016.52 1016.55 1016.54 1016.55 1016.60 1016.71 1016.87 1017.08 1017.30 1017.51
1014.22 1015.30 1016.09 1016.49 1016.45 1016.00 1015.23 1014.28 1013.30 1012.45 1011.81 1011.45 1011.33 1011.41 1011.62 1011.85 1012.05 1012.18 1012.25 1012.29 1012.35 1012.47 1012.68 1012.99 1013.37 1013.78 1014.16 1014.49 1014.75 1014.93 1015.07 1015.19 1015.33 1015.50 1015.71 1015.94 1016.14 1016.31 1016.42 1016.47 1016.48 1016.48 1016.51 1016.59 1016.73 1016.92 1017.15 1017.37 1017.56
1014.25 1015.04 1015.52 1015.63 1015.38 1014.83 1014.09 1013.31 1012.60 1012.07 1011.77 1011.70 1011.82 1012.05 1012.32 1012.55 1012.71 1012.79 1012.82 1012.85 1012.92 1013.07 1013.30 1013.60 1013.94 1014.26 1014.54 1014.74 1014.87 1014.96 1015.03 1015.13 1015.27 1015.47 1015.70 1015.94 1016.15 1016.30 1016.39 1016.42 1016.41 1016.42 1016.47 1016.57 1016.74 1016.95 1017.19 1017.40 1017.58
1014.12 1014.59 1014.75 1014.60 1014.18 1013.59 1012.94 1012.35 1011.92 1011.72 1011.73 1011.92 1012.22 1012.56 1012.86 1013.09 1013.21 1013.27 1013.30 1013.36 1013.48 1013.67 1013.94 1014.23 1014.52 1014.76 1014.91 1014.98 1014.98 1014.97 1014.97 1015.04 1015.19 1015.40 1015.66 1015.92 1016.14 1016.29 1016.36 1016.37 1016.36 1016.36 1016.42 1016.54 1016.72 1016.96 1017.20 1017.41 1017.58
1013.84 1014.02 1013.91 1013.56 1013.04 1012.46 1011.93 1011.55 1011.38 1011.44 1011.69 1012.06 1012.47 1012.86 1013.15 1013.35 1013.45 1013.51 1013.57 1013.70 1013.90 1014.17 1014.49 1014.81 1015.06 1015.21 1015.25 1015.19 1015.08 1014.97 1014.91 1014.96 1015.11 1015.35 1015.63 1015.91 1016.14 1016.28 1016.34 1016.34 1016.31 1016.30 1016.35 1016.48 1016.68 1016.92 1017.18 1017.40 1017.57
1013.47 1013.43 1013.14 1012.67 1012.12 1011.60 1011.21 1011.01 1011.05 1011.29 1011.68 1012.14 1012.57 1012.93 1013.18 1013.32 1013.40 1013.48 1013.60 1013.82 1014.13 1014.51 1014.91 1015.25 1015.49 1015.58 1015.53 1015.38 1015.17 1014.98 1014.88 1014.91 1015.06 1015.31 1015.62 1015.91 1016.14 1016.28 1016.32 1016.29 1016.24 1016.22 1016.26 1016.39 1016.59 1016.85 1017.12 1017.37 1017.56
1013.07 1012.92 1012.55 1012.06 1011.55 1011.13 1010.87 1010.83 1011.00 1011.34 1011.77 1012.21 1012.58 1012.85 1013.01 1013.09 1013.14 1013.25 1013.45 1013.77 1014.19 1014.68 1015.16 1015.55 1015.78 1015.84 1015.74 1015.52 1015.25 1015.02 1014.89 1014.90 1015.05 1015.32 1015.62 1015.92 1016.14 1016.26 1016.28 1016.22 1016.15 1016.11 1016.14 1016.26 1016.47 1016.74 1017.03 1017.31 1017.53
1012.73 1012.56 1012.21 1011.78 1011.38 1011.08 1010.96 1011.03 1011.27 1011.63 1012.01 1012.36 1012.61 1012.74 1012.79 1012.79 1012.83 1012.96 1013.22 1013.63 1014.16 1014.73 1015.27 1015.70 1015.94 1015.99 1015.86 1015.61 1015.32 1015.07 1014.94 1014.94 1015.10 1015.35 1015.65 1015.92 1016.12 1016.21 1016.21 1016.14 1016.04 1015.99 1016.01 1016.12 1016.33 1016.60 1016.91 1017.21 1017.47
1012.52 1012.41 1012.16 1011.86 1011.60 1011.45 1011.44 1011.59 1011.84 1012.15 1012.43 1012.64 1012.74 1012.74 1012.68 1012.62 1012.63 1012.77 1013.08 1013.55 1014.12 1014.74 1015.30 1015.74 1015.99 1016.03 1015.90 1015.66 1015.39 1015.15 1015.03 1015.04 1015.18 1015.41 1015.68 1015.92 1016.08 1016.15 1016.13 1016.04 1015.94 1015.88 1015.89 1015.99 1016.19 1016.46 1016.78 1017.09 1017.37
1012.51 1012.51 1012.40 1012.26 1012.15 1012.14 1012.23 1012.41 1012.64 1012.87 1013.03 1013.10 1013.07 1012.95 1012.81 1012.70 1012.70 1012.85 1013.17 1013.64 1014.20 1014.79 1015.33 1015.73 1015.96 1016.00 1015.89 1015.69 1015.46 1015.27 1015.17 1015.19 1015.32 1015.51 1015.73 1015.92 1016.04 1016.08 1016.04 1015.96 1015.87 1015.81 1015.82 1015.92 1016.11 1016.36 1016.65 1016.96 1017.24
1012.72 1012.84 1012.87 1012.89 1012.94 1013.04 1013.19 1013.38 1013.57 1013.70 1013.76 1013.71 1013.59 1013.41 1013.23 1013.11 1013.11 1013.26 1013.55 1013.97 1014.47 1014.97 1015.41 1015.73 1015.91 1015.95 1015.87 1015.72 1015.56 1015.43 1015.38 1015.41 1015.51 1015.66 1015.82 1015.94 1016.02 1016.03 1015.99 1015.92 1015.86 1015.82 1015.85 1015.95 1016.11 1016.33 1016.59 1016.85 1017.11
1013.14 1013.36 1013.52 1013.68 1013.85 1014.03 1014.22 1014.39 1014.52 1014.57 1014.53 1014.41 1014.24 1014.05 1013.89 1013.80 1013.82 1013.97 1014.22 1014.55 1014.91 1015.27 1015.57 1015.79 1015.90 1015.92 1015.88 1015.80 1015.72 1015.67 1015.66 1015.70 1015.78 1015.87 1015.95 1016.01 1016.03 1016.02 1015.99 1015.95 1015.93 1015.94 1015.99 1016.10 1016.24 1016.42 1016.61 1016.82 1017.01
1013.69 1013.99 1014.27 1014.53 1014.79 1015.03 1015.23 1015.36 1015.41 1015.37 1015.25 1015.09 1014.92 1014.77 1014.67 1014.65 1014.72 1014.86 1015.06 1015.28 1015.50 1015.68 1015.82 1015.90 1015.94 1015.95 1015.94 1015.94 1015.96 1015.99 1016.04 1016.09 1016.13 1016.16 1016.16 1016.14 1016.10 1016.07 1016.05 1016.05 1016.09 1016.16 1016.25 1016.36 1016.49 1016.62 1016.75 1016.88 1017.01
1014.27 1014.65 1015.02 1015.39 1015.72 1015.98 1016.16 1016.22 1016.18 1016.04 1015.86 1015.66 1015.51 1015.42 1015.41 1015.48 1015.62 1015.78 1015.94 1016.06 1016.13 1016.14 1016.12 1016.07 1016.04 1016.04 1016.09 1016.17 1016.29 1016.41 1016.50 1016.56 1016.57 1016.52 1016.43 1016.33 1016.24 1016.18 1016.17 1016.22 1016.32 1016.45 1016.58 1016.72 1016.83 1016.92 1016.99 1017.05 1017.10
1014.77 1015.25 1015.73 1016.20 1016.59 1016.87 1017.00 1016.98 1016.81 1016.56 1016.28 1016.04 1015.89 1015.86 1015.94 1016.12 1016.33 1016.53 1016.67 1016.72 1016.68 1016.56 1016.40 1016.26 1016.19 1016.20 1016.30 1016.47 1016.69 1016.89 1017.04 1017.10 1017.06 1016.94 1016.77 1016.59 1016.44 1016.35 1016.35 1016.44 1016.59 1016.77 1016.95 1017.11 1017.22 1017.28 1017.30 1017.30 1017.29
1015.11 1015.72 1016.35 1016.94 1017.42 1017.71 1017.79 1017.65 1017.34 1016.93 1016.52 1016.19 1016.01 1016.00 1016.15 1016.41 1016.71 1016.97 1017.13 1017.16 1017.05 1016.86 1016.63 1016.44 1016.35 1016.38 1016.55 1016.81 1017.11 1017.39 1017.59 1017.65 1017.58 1017.40 1017.15 1016.89 1016.68 1016.56 1016.56 1016.67 1016.86 1017.09 1017.30 1017.48 1017.59 1017.63 1017.62 1017.58 1017.54
1015.23 1016.04 1016.87 1017.63 1018.20 1018.52 1018.54 1018.28 1017.79 1017.19 1016.59 1016.12 1015.85 1015.81 1015.99 1016.31 1016.69 1017.03 1017.24 1017.30 1017.20 1016.99 1016.75 1016.55 1016.48 1016.56 1016.80 1017.14 1017.52 1017.86 1018.09 1018.16 1018.07 1017.84 1017.53 1017.21 1016.95 1016.80 1016.78 1016.90 1017.10 1017.35 1017.58 1017.77 1017.87 1017.91 1017.88 1017.83 1017.78
1015.17 1016.22 1017.29 1018.25 1018.95 1019.31 1019.28 1018.88 1018.20 1017.37 1016.55 1015.88 1015.47 1015.35 1015.51 1015.86 1016.30 1016.72 1017.02 1017.15 1017.11 1016.95 1016.75 1016.60 1016.57 1016.70 1016.99 1017.39 1017.83 1018.22 1018.48 1018.57 1018.47 1018.21 1017.87 1017.51 1017.22 1017.04 1017.00 1017.10 1017.29 1017.53 1017.76 1017.94 1018.04 1018.06 1018.04 1017.99 1017.94
1014.99 1016.31 1017.64 1018.80 1019.65 1020.06 1019.98 1019.46 1018.58 1017.51 1016.45 1015.56 1014.96 1014.72 1014.81 1015.16 1015.66 1016.16 1016.56 1016.79 1016.86 1016.79 1016.67 1016.58 1016.60 1016.78 1017.11 1017.55 1018.02 1018.44 1018.72 1018.82 1018.73 1018.49 1018.14 1017.78 1017.47 1017.27 1017.21 1017.28 1017.45 1017.65 1017.85 1018.00 1018.08 1018.09 1018.06 1018.02 1017.99
1014.78 1016.34 1017.90 1019.26 1020.23 1020.69 1020.58 1019.94 1018.89 1017.61 1016.32 1015.21 1014.43 1014.04 1014.06 1014.39 1014.91 1015.49 1015.99 1016.35 1016.54 1016.58 1016.55 1016.53 1016.60 1016.81 1017.15 1017.59 1018.06 1018.48 1018.78 1018.91 1018.85 1018.64 1018.33 1017.99 1017.70 1017.50 1017.42 1017.46 1017.57 1017.73 1017.87 1017.97 1018.01 1018.00 1017.96 1017.92 1017.92
1014.62 1016.35 1018.07 1019.56 1020.62 1021.10 1020.97 1020.24 1019.06 1017.62 1016.15 1014.87 1013.94 1013.44 1013.37 1013.68 1014.22 1014.86 1015.46 1015.94 1016.24 1016.39 1016.45 1016.49 1016.59 1016.79 1017.11 1017.52 1017.97 1018.38 1018.68 1018.84 1018.83 1018.68 1018.43 1018.15 1017.90 1017.71 1017.62 1017.63 1017.69 1017.78 1017.86 1017.90 1017.89 1017.84 1017.79 1017.74 1017.74
1014.52 1016.32 1018.10 1019.63 1020.71 1021.20 1021.03 1020.26 1019.01 1017.49 1015.93 1014.55 1013.54 1012.97 1012.86 1013.14 1013.71 1014.40 1015.08 1015.64 1016.05 1016.29 1016.41 1016.49 1016.59 1016.77 1017.04 1017.39 1017.78 1018.16 1018.46 1018.64 1018.68 1018.61 1018.45 1018.25 1018.05 1017.91 1017.82 1017.80 1017.81 1017.83 1017.84 1017.81 1017.75 1017.67 1017.58 1017.52 1017.51
1014.47 1016.22 1017.93 1019.40 1020.42 1020.87 1020.67 1019.89 1018.65 1017.14 1015.59 1014.23 1013.22 1012.65 1012.54 1012.84 1013.42 1014.15 1014.88 1015.51 1015.98 1016.28 1016.45 1016.54 1016.62 1016.75 1016.96 1017.23 1017.56 1017.88 1018.16 1018.36 1018.46 1018.46 1018.39 1018.28 1018.15 1018.05 1017.98 1017.94 1017.91 1017.88 1017.83 1017.74 1017.63 1017.50 1017.38 1017.30 1017.26
1014.42 1015.99 1017.52 1018.82 1019.71 1020.06 1019.84 1019.09 1017.92 1016.52 1015.10 1013.86 1012.95 1012.46 1012.41 1012.74 1013.35 1014.09 1014.85 1015.51 1016.02 1016.35 1016.54 1016.63 1016.68 1016.75 1016.89 1017.08 1017.33 1017.60 1017.85 1018.06 1018.20 1018.26 1018.27 1018.23 1018.18 1018.12 1018.07 1018.02 1017.97 1017.90 1017.80 1017.67 1017.52 1017.37 1017.23 1017.12 1017.05
1014.29 1015.59 1016.84 1017.88 1018.57 1018.80 1018.56 1017.86 1016.84 1015.63 1014.43 1013.40 1012.68 1012.34 1012.39 1012.78 1013.41 1014.17 1014.93 1015.59 1016.10 1016.44 1016.63 1016.71 1016.73 1016.76 1016.83 1016.96 1017.14 1017.35 1017.56 1017.76 1017.92 1018.02 1018.08 1018.10 1018.10 1018.08 1018.05 1018.00 1017.93 1017.84 1017.72 1017.58 1017.41 1017.25 1017.09 1016.96 1016.87
1014.06 1015.04 1015.95 1016.68 1017.12 1017.21 1016.93 1016.32 1015.48 1014.52 1013.60 1012.86 1012.39 1012.24 1012.42 1012.87 1013.53 1014.27 1015.00 1015.64 1016.13 1016.46 1016.65 1016.72 1016.74 1016.75 1016.78 1016.86 1016.98 1017.14 1017.32 1017.49 1017.64 1017.76 1017.84 1017.89 1017.91 1017.91 1017.89 1017.84 1017.77 1017.68 1017.56 1017.42 1017.26 1017.10 1016.95 1016.82 1016.70
Thickness
5830 5827 5824 5812 5791 5774 5769 5785 5798 5803 5809 5823 5831 5829 5822 5815 5805 5794 5818 5822 5818 5812 5807 5804 5801 5798 5795 5792 5789 5786 5784 5782 5780 5777 5775 5773 5771 5769 5767 5766 5764 5763 5761 5760 5758 5757 5755 5754 5753
5829 5826 5816 5799 5777 5759 5767 5791 5798 5807 5814 5825 5829 5830 5823 5817 5822 5816 5817 5817 5815 5811 5807 5803 5800 5797 5794 5791 5788 5785 5782 5779 5777 5775 5773 5771 5769 5767 5765 5764 5762 5761 5759 5758 5757 5755 5754 5753 5752
5828 5825 5802 5785 5773 5765 5774 5798 5807 5818 5820 5819 5819 5826 5821 5815 5820 5817 5818 5816 5812 5808 5805 5802 5798 5795 5792 5789 5786 5783 5780 5777 5775 5773 5771 5769 5767 5764 5762 5761 5760 5758 5757 5756 5755 5754 5752 5751 5750
5822 5808 5794 5776 5771 5785 5794 5806 5815 5813 5812 5817 5812 5808 5816 5826 5825 5821 5818 5814 5809 5804 5802 5799 5796 5793 5790 5787 5784 5781 5778 5775 5772 5770 5768 5766 5764 5762 5760 5758 5756 5755 5754 5753 5752 5751 5750 5749 5748
5815 5793 5776 5767 5776 5793 5806 5816 5818 5811 5806 5808 5807 5798 5801 5818 5826 5820 5814 5809 5805 5801 5799 5796 5793 5790 5788 5785 5782 5778 5776 5773 5770 5768 5765 5763 5761 5759 5757 5755 5754 5752 5751 5750 5749 5748 5747 5746 5746
5796 5783 5764 5760 5776 5795 5805 5815 5813 5809 5805 5803 5800 5792 5793 5811 5816 5813 5810 5804 5802 5799 5795 5792 5790 5787 5785 5782 5779 5776 5773 5770 5768 5765 5763 5761 5759 5757 5755 5753 5751 5750 5749 5747 5746 5745 5744 5744 5743
5787 5775 5765 5771 5776 5787 5803 5813 5807 5802 5799 5800 5803 5788 5789 5801 5809 5810 5804 5799 5796 5794 5791 5789 5786 5784 5781 5779 5776 5773 5770 5767 5765 5762 5760 5758 5756 5754 5752 5750 5748 5747 5746 5744 5743 5742 5742 5741 5740
5797 5775 5766 5768 5774 5782 5805 5810 5810 5802 5796 5805 5803 5785 5781 5793 5805 5804 5796 5792 5789 5788 5787 5785 5783 5781 5778 5776 5773 5770 5767 5765 5762 5759 5757 5755 5753 5751 5749 5747 5746 5744 5743 5741 5740 5739 5738 5738 5737
5801 5765 5754 5766 5775 5785 5802 5800 5802 5807 5800 5797 5797 5794 5795 5798 5800 5795 5787 5782 5780 5780 5781 5780 5779 5777 5775 5772 5769 5767 5764 5761 5758 5756 5754 5752 5749 5747 5746 5744 5743 5741 5740 5739 5737 5736 5735 5734 5734
5784 5755 5765 5785 5792 5792 5797 5797 5797 5792 5787 5785 5786 5792 5798 5794 5790 5785 5780 5776 5774 5774 5775 5775 5775 5774 5771 5768 5765 5763 5760 5757 5755 5752 5750 5748 5746 5744 5742 5741 5740 5739 5737 5736 5735 5734 5733 5732 5731
5783 5771 5785 5793 5799 5797 5795 5794 5797 5784 5772 5778 5781 5784 5788 5786 5783 5780 5776 5775 5773 5772 5772 5772 5772 5770 5768 5765 5761 5758 5756 5753 5751 5749 5747 5745 5742 5741 5739 5737 5736 5736 5734 5733 5732 5731 5730 5729 5728
5784 5787 5793 5794 5800 5795 5791 5789 5782 5776 5772 5782 5783 5785 5782 5779 5775 5775 5772 5770 5770 5769 5769 5769 5768 5766 5764 5761 5758 5755 5752 5750 5747 5745 5744 5741 5739 5737 5735 5734 5733 5733 5731 5730 5729 5728 5727 5726 5725
5784 5786 5793 5795 5795 5792 5788 5779 5773 5766 5772 5775 5773 5774 5775 5774 5770 5771 5771 5768 5767 5765 5765 5764 5765 5762 5760 5757 5755 5752 5750 5747 5744 5742 5740 5738 5735 5733 5731 5730 5730 5729 5728 5727 5726 5726 5725 5724 5723
5789 5790 5789 5789 5789 5786 5777 5768 5763 5757 5765 5765 5762 5764 5768 5768 5765 5763 5761 5761 5759 5759 5760 5760 5760 5758 5755 5752 5750 5748 5746 5743 5741 5738 5736 5734 5732 5730 5728 5726 5725 5725 5725 5724 5723 5723 5722 5721 5720
5794 5781 5779 5780 5780 5776 5773 5753 5751 5754 5758 5755 5752 5755 5759 5759 5759 5757 5757 5756 5755 5755 5757 5757 5755 5753 5750 5746 5745 5743 5740 5738 5736 5734 5732 5730 5728 5726 5724 5722 5721 5721 5720 5720 5720 5719 5718 5718 5717
5780 5765 5753 5766 5771 5771 5758 5732 5745 5752 5752 5745 5745 5748 5750 5752 5753 5754 5756 5757 5754 5753 5753 5754 5753 5749 5745 5742 5740 5738 5736 5733 5732 5730 5728 5726 5724 5722 5720 5718 5717 5717 5716 5716 5715 5714 5713 5712 5712
5755 5743 5744 5755 5765 5763 5748 5732 5742 5748 5747 5740 5740 5742 5743 5744 5746 5749 5752 5754 5752 5750 5749 5749 5748 5745 5742 5739 5736 5734 5731 5729 5727 5725 5723 5721 5720 5718 5716 5714 5713 5712 5711 5710 5710 5709 5708 5706 5706
5741 5742 5743 5744 5754 5754 5741 5735 5741 5744 5743 5737 5737 5738 5738 5738 5739 5745 5748 5749 5748 5745 5746 5746 5744 5741 5738 5736 5732 5729 5726 5724 5723 5721 5719 5718 5716 5714 5712 5710 5708 5706 5705 5704 5704 5703 5703 5702 5701
5761 5750 5742 5745 5754 5745 5736 5734 5736 5740 5737 5733 5732 5732 5732 5732 5737 5742 5745 5745 5742 5741 5741 5740 5737 5735 5734 5730 5726 5722 5719 5718 5717 5716 5714 5713 5712 5710 5707 5705 5702 5701 5699 5698 5698 5697 5696 5695 5695
5765 5748 5739 5742 5751 5741 5729 5727 5732 5734 5731 5731 5730 5727 5728 5730 5732 5735 5737 5739 5738 5737 5736 5734 5732 5731 5729 5727 5724 5721 5718 5715 5712 5711 5709 5708 5707 5705 5703 5700 5697 5695 5693 5692 5691 5690 5688 5687 5688
5763 5752 5745 5738 5740 5738 5729 5718 5721 5727 5730 5731 5731 5730 5732 5733 5731 5732 5733 5734 5735 5734 5733 5732 5729 5727 5726 5724 5721 5718 5714 5710 5707 5704 5703 5702 5702 5700 5698 5695 5693 5690 5688 5685 5684 5683 5681 5678 5679
5752 5766 5760 5746 5727 5712 5719 5698 5711 5718 5722 5726 5728 5729 5731 5733 5734 5732 5732 5731 5732 5732 5732 5729 5727 5725 5723 5721 5717 5712 5706 5702 5700 5699 5698 5698 5697 5695 5693 5690 5688 5685 5682 5680 5678 5677 5675 5672 5669
5761 5766 5755 5741 5723 5709 5709 5698 5702 5715 5715 5721 5727 5731 5732 5733 5733 5731 5732 5732 5733 5732 5730 5727 5725 5722 5720 5718 5714 5708 5703 5700 5698 5696 5694 5692 5691 5689 5687 5685 5682 5679 5676 5674 5672 5670 5668 5666 5663
5770 5752 5738 5725 5713 5695 5701 5696 5699 5710 5720 5725 5729 5733 5734 5733 5733 5732 5734 5733 5731 5730 5728 5725 5722 5719 5717 5714 5711 5706 5701 5698 5694 5690 5688 5685 5684 5682 5681 5678 5676 5673 5670 5668 5665 5663 5661 5659 5657
5763 5734 5710 5700 5688 5690 5705 5701 5706 5729 5737 5736 5735 5735 5737 5736 5734 5733 5732 5731 5728 5727 5725 5723 5719 5716 5714 5712 5708 5705 5700 5696 5691 5687 5684 5681 5678 5675 5674 5672 5669 5667 5664 5662 5659 5656 5654 5652 5650
5757 5742 5712 5694 5685 5690 5703 5700 5721 5745 5748 5747 5743 5740 5739 5738 5736 5735 5734 5732 5730 5727 5725 5721 5718 5715 5713 5710 5706 5703 5699 5694 5690 5686 5682 5678 5675 5672 5670 5667 5664 5661 5658 5656 5653 5650 5647 5645 5643
5756 5741 5737 5708 5695 5687 5694 5710 5732 5748 5745 5744 5742 5740 5738 5739 5737 5736 5735 5733 5731 5728 5725 5722 5718 5715 5712 5709 5705 5700 5697 5692 5688 5684 5680 5676 5673 5670 5666 5663 5659 5656 5652 5649 5646 5642 5640 5637 5635
5769 5753 5727 5707 5689 5685 5694 5703 5713 5732 5736 5740 5741 5740 5741 5740 5739 5737 5736 5734 5732 5729 5726 5723 5719 5715 5711 5707 5703 5700 5695 5691 5687 5682 5677 5673 5670 5666 5662 5658 5654 5650 5646 5643 5639 5636 5633 5630 5628
5757 5748 5729 5711 5706 5690 5684 5703 5744 5744 5745 5743 5745 5746 5744 5743 5741 5738 5736 5735 5732 5729 5725 5721 5717 5713 5709 5706 5702 5698 5693 5689 5685 5680 5675 5671 5667 5663 5658 5654 5649 5645 5640 5637 5633 5629 5627 5623 5621
5764 5752 5734 5714 5707 5703 5696 5712 5764 5758 5755 5752 5749 5750 5749 5747 5744 5740 5737 5733 5729 5726 5723 5720 5717 5713 5709 5705 5701 5697 5692 5687 5682 5678 5674 5669 5664 5660 5655 5650 5645 5640 5636 5631 5627 5623 5621 5617 5613